Bangor, ME

7:39 PM EDT on October 14, 2019 (GMT -0400)
Bangor International

Weather History for KBGR - August, 2019

Change the Weather History Date:

Sunday, August 11, 2019

  Actual Average Record
Temperature  
Mean Temperature 64 °F 68 °F  
Max Temperature 76 °F 79 °F 99 °F (1944)
Min Temperature 51 °F 57 °F 44 °F (1927)
Degree Days  
Heating Degree Days 1 1  
Month to date heating degree days 1 11  
Since 1 June heating degree days 91 141  
Since 1 July heating degree days 1 34  
Cooling Degree Days 0 4  
Month to date cooling degree days 37 44  
Year to date cooling degree days 263 234  
Since 1 June cooling degree days 263 228  
Growing Degree Days 14 (Base 50)    
Moisture  
Dew Point 53 °F    
Average Humidity 70    
Maximum Humidity 93    
Minimum Humidity 46    
Precipitation  
Precipitation 0.00 in 0.09 in 1.74 in (1955)
Month to date precipitation 3.78 1.17  
Year to date precipitation 32.45 24.44  
Snow  
Snow 0.00 in 0.00 in 0.00 in (2002)
Month to date snowfall 0.0 0.0  
Since 1 June snowfall 0.0 0.0  
Since 1 July snowfall 0.0 0.0  
Snow Depth 0.00 in    
Sea Level Pressure  
Sea Level Pressure 29.82 in    
Wind  
Wind Speed 6 mph (WSW)    
Max Wind Speed 16 mph    
Max Gust Speed 23 mph    
Visibility 10 miles    
Events      
T = Trace of Precipitation, MM = Missing Value Source: NWS Daily Summary

Daily Weather History Graph

Daily Weather History Graph

Search for Another Location

Airport or City:

Astronomy

Aug. 11, 2019 Rise Set
Actual Time 5:32 AM EDT 7:47 PM EDT
Civil Twilight 5:00 AM EDT 8:20 PM EDT
Nautical Twilight 4:19 AM EDT 8:59 PM EDT
Astronomical Twilight 3:35 AM EDT 9:44 PM EDT
Moon 5:29 PM EDT (8/11) 1:44 AM EDT (8/11)
Length of Visible Light 15h 19m
Length of Day
14h 15m
Waxing Gibbous, 87% of the Moon is Illuminated
Aug 11
Waxing Gibbous
Aug 15
Full
Aug 23
Last Quarter
Aug 30
New
Sep 5
First Quarter

Hourly Weather History & Observations

Time (EDT) Temp. Dew Point Humidity Pressure Visibility Wind Dir Wind Speed Gust Speed Precip Events Conditions
12:53 AM 55.9 °F 51.1 °F 84% 29.77 in 10.0 mi West 5.8 mph - N/A   Partly Cloudy
1:53 AM 55.9 °F 50.0 °F 80% 29.78 in 10.0 mi West 5.8 mph - N/A   Clear
2:53 AM 55.0 °F 51.1 °F 86% 29.79 in 10.0 mi West 6.9 mph - N/A   Clear
3:53 AM 54.0 °F 51.1 °F 90% 29.79 in 10.0 mi Calm Calm - N/A   Clear
4:53 AM 54.0 °F 51.1 °F 90% 29.80 in 10.0 mi West 3.5 mph - N/A   Partly Cloudy
5:53 AM 53.1 °F 51.1 °F 93% 29.82 in 10.0 mi SSW 3.5 mph - N/A   Scattered Clouds
6:53 AM 55.9 °F 52.0 °F 87% 29.84 in 10.0 mi West 4.6 mph - N/A   Mostly Cloudy
7:53 AM 61.0 °F 53.1 °F 75% 29.85 in 10.0 mi WSW 8.1 mph - N/A   Mostly Cloudy
8:53 AM 64.0 °F 55.0 °F 73% 29.85 in 10.0 mi West 6.9 mph - N/A   Mostly Cloudy
9:53 AM 66.9 °F 53.1 °F 61% 29.85 in 10.0 mi West 9.2 mph - N/A   Mostly Cloudy
10:53 AM 69.1 °F 55.0 °F 61% 29.84 in 10.0 mi WNW 9.2 mph - N/A   Mostly Cloudy
11:53 AM 68.0 °F 54.0 °F 61% 29.84 in 10.0 mi West 11.5 mph - N/A   Mostly Cloudy
12:53 PM 70.0 °F 52.0 °F 53% 29.83 in 10.0 mi WNW 10.4 mph 23.0 mph N/A   Mostly Cloudy
1:53 PM 73.0 °F 53.1 °F 49% 29.82 in 10.0 mi West 9.2 mph 19.6 mph N/A   Mostly Cloudy
2:53 PM 73.0 °F 53.1 °F 49% 29.81 in 10.0 mi WSW 10.4 mph 21.9 mph N/A   Mostly Cloudy
3:53 PM 75.0 °F 54.0 °F 48% 29.80 in 10.0 mi West 8.1 mph 21.9 mph N/A   Mostly Cloudy
4:53 PM 73.0 °F 53.1 °F 49% 29.80 in 10.0 mi West 8.1 mph - N/A   Overcast
5:53 PM 73.9 °F 54.0 °F 50% 29.80 in 10.0 mi Calm Calm - N/A   Mostly Cloudy
6:53 PM 72.0 °F 51.1 °F 48% 29.82 in 10.0 mi West 3.5 mph - N/A   Scattered Clouds
7:53 PM 66.9 °F 53.1 °F 61% 29.83 in 10.0 mi Calm Calm - N/A   Partly Cloudy
8:53 PM 63.0 °F 55.0 °F 75% 29.84 in 10.0 mi SSW 4.6 mph - N/A   Partly Cloudy
9:53 PM 64.9 °F 53.1 °F 65% 29.84 in 10.0 mi SW 3.5 mph - N/A   Clear
10:53 PM 62.1 °F 53.1 °F 72% 29.84 in 10.0 mi Calm Calm - N/A   Clear
11:53 PM 63.0 °F 53.1 °F 70% 29.84 in 10.0 mi South 3.5 mph - N/A   Partly Cloudy